| time (UTC) | temp C | wind direction | speed KPH | gust KPH | rain 1hr cm | rain 24hr cm | rain mn cm | humidity % | barometer mb |
| 20260504081530 | 8 | 236 | 0.0 | 0.0 | 0.00 | 0.00 | 0.00 | 73 | 1015.3 |
| 20260504050010 | 6 | 236 | 0.0 | 0.0 | 0.00 | 0.00 | 0.00 | 76 | 1015.7 |
| 20260504044527 | 6 | 236 | 0.0 | 0.0 | 0.00 | 0.00 | 0.00 | 75 | 1015.6 |
| 20260504043025 | 6 | 236 | 0.0 | 0.0 | 0.00 | 0.00 | 0.00 | 74 | 1015.7 |
| 20260504041519 | 6 | 236 | 0.0 | 0.0 | 0.00 | 0.00 | 0.00 | 72 | 1015.4 |
| 20260504040028 | 6 | 236 | 0.0 | 0.0 | 0.00 | 0.00 | 0.00 | 71 | 1015.3 |
| 20260504034522 | 6 | 236 | 0.0 | 0.0 | 0.00 | 0.00 | 0.00 | 70 | 1015.5 |
| 20260504033021 | 6 | 236 | 0.0 | 0.0 | 0.00 | 0.00 | 0.00 | 69 | 1015.6 |
| 20260504031521 | 6 | 236 | 0.0 | 0.0 | 0.00 | 0.00 | 0.00 | 68 | 1015.4 |
| 20260504030017 | 7 | 236 | 0.0 | 0.0 | 0.00 | 0.00 | 0.00 | 66 | 1015.4 |
| 20260504024510 | 7 | 236 | 0.0 | 0.0 | 0.00 | 0.00 | 0.00 | 65 | 1015.4 |
| 20260504023031 | 7 | 236 | 0.0 | 0.0 | 0.00 | 0.00 | 0.00 | 63 | 1015.3 |
| 20260504021532 | 8 | 236 | 0.0 | 0.0 | 0.00 | 0.00 | 0.00 | 62 | 1015.3 |
| 20260504020040 | 8 | 236 | 0.0 | 0.0 | 0.00 | 0.00 | 0.00 | 62 | 1015.1 |
| 20260504014518 | 8 | 236 | 0.0 | 0.0 | 0.00 | 0.00 | 0.00 | 60 | 1015.0 |
| 20260504013014 | 9 | 236 | 0.0 | 0.0 | 0.00 | 0.00 | 0.00 | 56 | 1014.8 |
| 20260504011512 | 10 | 236 | 0.0 | 0.0 | 0.00 | 0.00 | 0.00 | 53 | 1014.6 |
| 20260504010016 | 10 | 236 | 0.0 | 0.0 | 0.00 | 0.00 | 0.00 | 49 | 1014.6 |
| 20260504004509 | 11 | 236 | 0.0 | 0.0 | 0.00 | 0.00 | 0.00 | 47 | 1014.5 |
| 20260504003031 | 12 | 236 | 0.0 | 0.0 | 0.00 | 0.00 | 0.00 | 45 | 1014.4 |
| 20260504001523 | 13 | 236 | 0.0 | 0.0 | 0.00 | 0.00 | 0.00 | 41 | 1014.4 |
| 20260504000021 | 14 | 236 | 0.0 | 0.0 | 0.00 | 0.00 | 0.00 | 39 | 1014.2 |
| 20260503234545 | 15 | 236 | 0.0 | 0.0 | 0.00 | 0.00 | 0.00 | 35 | 1014.1 |
| 20260503233015 | 15 | 211 | 0.0 | 0.0 | 0.00 | 0.00 | 0.00 | 34 | 1014.1 |
| 20260503231514 | 16 | 36 | 0.0 | 0.0 | 0.00 | 0.00 | 0.00 | 34 | 1013.9 |
| 20260503230028 | 16 | 274 | 0.0 | 0.0 | 0.00 | 0.00 | 0.00 | 32 | 1013.8 |
| 20260503224524 | 16 | 210 | 0.0 | 0.0 | 0.00 | 0.00 | 0.00 | 31 | 1013.9 |
| 20260503223024 | 17 | 227 | 0.0 | 8.0 | 0.00 | 0.00 | 0.00 | 31 | 1013.9 |
| 20260503221519 | 18 | 188 | 0.0 | 0.0 | 0.00 | 0.00 | 0.00 | 31 | 1013.9 |
| 20260503220011 | 19 | 17 | 0.0 | 0.0 | 0.00 | 0.00 | 0.00 | 29 | 1014.1 |
| 20260503214537 | 19 | 188 | 0.0 | 0.0 | 0.00 | 0.00 | 0.00 | 29 | 1013.9 |
| 20260503213035 | 20 | 275 | 0.0 | 1.6 | 0.00 | 0.00 | 0.00 | 27 | 1014.1 |
| 20260503211517 | 20 | 186 | 0.0 | 0.0 | 0.00 | 0.00 | 0.00 | 29 | 1014.2 |
| 20260503210034 | 19 | 69 | 0.0 | 0.0 | 0.00 | 0.00 | 0.00 | 31 | 1014.1 |
| 20260503204534 | 19 | 275 | 0.0 | 0.0 | 0.00 | 0.00 | 0.00 | 32 | 1014.3 |
| 20260503203028 | 18 | 93 | 0.0 | 0.0 | 0.00 | 0.00 | 0.00 | 31 | 1014.3 |
| 20260503201522 | 18 | 205 | 1.6 | 9.7 | 0.00 | 0.00 | 0.00 | 31 | 1014.4 |
| 20260503200031 | 18 | 194 | 0.0 | 4.8 | 0.00 | 0.00 | 0.00 | 35 | 1014.6 |
| 20260503194519 | 18 | 222 | 0.0 | 8.0 | 0.00 | 0.00 | 0.00 | 34 | 1015.0 |
| 20260503193047 | 18 | 44 | 0.0 | 0.0 | 0.00 | 0.00 | 0.00 | 34 | 1015.1 |
| 20260503191528 | 18 | 208 | 0.0 | 0.0 | 0.00 | 0.00 | 0.00 | 36 | 1015.4 |
| 20260503190011 | 17 | 198 | 0.0 | 6.4 | 0.00 | 0.00 | 0.00 | 43 | 1015.6 |
| 20260503184530 | 17 | 30 | 0.0 | 0.0 | 0.00 | 0.00 | 0.00 | 34 | 1015.7 |
| 20260503183010 | 16 | 264 | 0.0 | 4.8 | 0.00 | 0.00 | 0.00 | 36 | 1015.9 |
| 20260503181526 | 16 | 32 | 0.0 | 11.3 | 0.00 | 0.00 | 0.00 | 40 | 1016.1 |
| 20260503180043 | 15 | 53 | 0.0 | 1.6 | 0.00 | 0.00 | 0.00 | 41 | 1016.2 |
| 20260503174520 | 15 | 130 | 0.0 | 0.0 | 0.00 | 0.00 | 0.00 | 43 | 1016.4 |
| 20260503173013 | 15 | 187 | 0.0 | 12.9 | 0.00 | 0.00 | 0.00 | 42 | 1016.4 |
| 20260503171510 | 15 | 143 | 0.0 | 1.6 | 0.00 | 0.00 | 0.00 | 43 | 1016.7 |